Location: Arcabell
(42.4308°N, 1.4823°E)
Time: 21:28:48
(UTC+00:00)

CZ-6A DEB - Visible Passes

Search period start: 13 January 2026 00:00
Search period end: 23 January 2026 00:00
Orbit: 801 x 854 km, 98.8° (Epoch: 13 January)

Date Brightness Start Highest point End Pass type
(mag) Time Alt. Az. Time Alt. Az. Time Alt. Az.
13 Jan ? 05:28:55 10° NE 05:33:15 24° E 05:37:35 10° SSE visible
13 Jan ? 18:33:34 10° SSW 18:37:49 25° W 18:42:06 10° NW visible
14 Jan ? 05:11:10 10° NE 05:14:30 16° E 05:17:52 10° SE visible
14 Jan ? 06:49:48 10° N 06:55:10 67° WNW 07:00:35 10° SSW visible
14 Jan ? 18:14:19 10° SSW 18:19:07 36° W 18:23:58 10° NNW visible
15 Jan ? 04:54:32 10° ENE 04:55:43 11° E 04:56:53 10° E visible
15 Jan ? 06:31:12 10° NNE 06:36:39 85° ESE 06:42:08 10° SSW visible
15 Jan ? 17:55:22 10° S 18:00:28 53° W 18:05:39 10° NNW visible
16 Jan ? 06:12:43 10° NNE 06:18:05 59° ESE 06:23:28 10° S visible
16 Jan ? 17:36:37 10° S 17:41:52 79° WSW 17:47:11 10° NNW visible
17 Jan ? 05:54:20 10° NNE 05:59:27 40° E 06:04:34 10° SSE visible
17 Jan ? 17:18:06 10° SSE 17:23:19 72° ENE 17:28:36 10° N visible
17 Jan ? 19:01:19 10° WSW 19:04:05 14° W 19:06:53 10° WNW visible
18 Jan ? 05:36:08 10° NE 05:40:46 28° E 05:45:24 10° SSE visible
18 Jan ? 18:41:21 10° SW 18:45:17 21° W 18:49:17 10° NW visible
19 Jan ? 05:18:11 10° NE 05:22:02 19° E 05:25:52 10° SE visible
19 Jan ? 18:21:56 10° SSW 18:26:33 31° W 18:31:14 10° NW visible
20 Jan ? 05:00:49 10° ENE 05:03:14 13° E 05:05:38 10° ESE visible
20 Jan ? 06:38:35 10° NNE 06:44:03 84° WNW 06:49:34 10° SSW visible
20 Jan ? 18:02:50 10° S 18:07:52 46° W 18:12:58 10° NNW visible
21 Jan ? 06:20:03 10° NNE 06:25:29 68° ESE 06:30:57 10° S visible
21 Jan ? 17:44:00 10° S 17:49:13 68° WSW 17:54:32 10° NNW visible
22 Jan ? 06:01:35 10° NNE 06:06:52 47° E 06:12:08 10° S visible
22 Jan ? 17:25:22 10° SSE 17:30:38 83° ENE 17:35:59 10° NNW visible
22 Jan ? 19:09:28 10° WSW 19:11:30 12° W 19:13:34 10° WNW visible
